• In Austria
  • List of Countries
  • For 7 days
  • Water Temperature
  • Satellite Maps
  • Weather Map
  • News
  • Weather Widgets
  • user-avatar
    Login

    Hourly Weather Kericho

    Today, 17 October, Wednesday

    Time Temperature Precipitation Wind Pressure Humidity
    00:00 +15°C° 0.4 mm 1 mps 598 mmHg 91%
    01:00 +14°C° 0.4 mm 1 mps 597 mmHg 91%
    02:00 +14°C° 0 mm 1 mps 597 mmHg 93%
    03:00 +14°C° 0.2 mm 1 mps 597 mmHg 92%
    04:00 +14°C° 0.2 mm 2 mps 597 mmHg 92%
    05:00 +14°C° 0.2 mm 2 mps 597 mmHg 92%
    06:00 +16°C° 0.1 mm 2 mps 598 mmHg 84%
    07:00 +19°C° 0.1 mm 1 mps 599 mmHg 76%
    08:00 +21°C° 0 mm 1 mps 600 mmHg 66%
    09:00 +23°C° 0.7 mm 1 mps 600 mmHg 62%
    10:00 +24°C° 0.7 mm 1 mps 601 mmHg 58%
    11:00 +26°C° 0.7 mm 1 mps 601 mmHg 54%
    12:00 +25°C° 1.2 mm 1 mps 600 mmHg 59%
    13:00 +24°C° 1.2 mm 1 mps 599 mmHg 63%
    14:00 +23°C° 1.2 mm 1 mps 598 mmHg 68%
    15:00 +21°C° 1.6 mm 1 mps 597 mmHg 74%
    16:00 +20°C° 1.6 mm 1 mps 596 mmHg 80%
    17:00 +18°C° 1.6 mm 1 mps 596 mmHg 86%
    18:00 +18°C° 1.6 mm 1 mps 596 mmHg 88%
    19:00 +16°C° 1.6 mm 2 mps 596 mmHg 89%
    20:00 +16°C° 1.6 mm 2 mps 597 mmHg 91%
    21:00 +16°C° 0.6 mm 2 mps 597 mmHg 91%
    22:00 +15°C° 0.6 mm 2 mps 597 mmHg 91%
    23:00 +15°C° 0.6 mm 2 mps 597 mmHg 91%

    Tomorrow, 18 October, Thursday

    Time Temperature Precipitation Wind Pressure Humidity
    00:00 +15°C° 0.2 mm 1 mps 597 mmHg 91%
    01:00 +15°C° 0.2 mm 1 mps 596 mmHg 91%
    02:00 +15°C° 0.2 mm 1 mps 596 mmHg 91%
    03:00 +14°C° 0.1 mm 1 mps 596 mmHg 91%
    04:00 +14°C° 0.1 mm 1 mps 596 mmHg 90%
    05:00 +14°C° 0.1 mm 1 mps 596 mmHg 90%
    06:00 +16°C° 0 mm 1 mps 597 mmHg 83%
    07:00 +19°C° 0 mm 1 mps 598 mmHg 76%
    08:00 +21°C° 0 mm 1 mps 599 mmHg 68%
    09:00 +23°C° 0 mm 1 mps 600 mmHg 58%
    10:00 +25°C° 0 mm 1 mps 600 mmHg 48%
    11:00 +28°C° 0 mm 2 mps 601 mmHg 38%
    12:00 +26°C° 0.4 mm 1 mps 599 mmHg 47%
    13:00 +24°C° 0.4 mm 1 mps 598 mmHg 56%
    14:00 +22°C° 0.4 mm 1 mps 596 mmHg 65%
    15:00 +21°C° 1.6 mm 1 mps 596 mmHg 71%
    16:00 +20°C° 1.6 mm 1 mps 596 mmHg 77%
    17:00 +18°C° 1.6 mm 1 mps 595 mmHg 83%
    18:00 +18°C° 0.7 mm 1 mps 596 mmHg 85%
    19:00 +18°C° 0.7 mm 1 mps 596 mmHg 86%
    20:00 +16°C° 0.7 mm 1 mps 597 mmHg 88%
    21:00 +16°C° 0.2 mm 1 mps 597 mmHg 89%
    22:00 +16°C° 0.2 mm 1 mps 597 mmHg 89%
    23:00 +15°C° 0.2 mm 1 mps 597 mmHg 90%

    Day after tomorrow, 19 October, Friday

    Time Temperature Precipitation Wind Pressure Humidity
    00:00 +15°C° 0.1 mm 1 mps 596 mmHg 90%
    01:00 +14°C° 0.1 mm 1 mps 596 mmHg 91%
    02:00 +14°C° 0.1 mm 1 mps 595 mmHg 92%
    03:00 +14°C° 0 mm 1 mps 595 mmHg 92%
    04:00 +13°C° 0 mm 1 mps 595 mmHg 91%
    05:00 +13°C° 0 mm 2 mps 596 mmHg 91%
    06:00 +15°C° 0 mm 1 mps 597 mmHg 82%
    07:00 +19°C° 0 mm 1 mps 598 mmHg 72%
    08:00 +21°C° 0 mm 1 mps 600 mmHg 63%
    09:00 +23°C° 0 mm 2 mps 600 mmHg 55%
    10:00 +25°C° 0 mm 2 mps 601 mmHg 47%
    11:00 +27°C° 0 mm 2 mps 601 mmHg 39%
    12:00 +26°C° 0.4 mm 2 mps 600 mmHg 47%
    13:00 +24°C° 0.4 mm 1 mps 598 mmHg 56%
    14:00 +22°C° 0.4 mm 1 mps 597 mmHg 65%
    15:00 +21°C° 1.4 mm 1 mps 597 mmHg 71%
    16:00 +20°C° 1.4 mm 1 mps 596 mmHg 78%
    17:00 +18°C° 1.4 mm 1 mps 596 mmHg 84%
    18:00 +18°C° 1.4 mm 1 mps 597 mmHg 86%
    19:00 +18°C° 1.4 mm 1 mps 597 mmHg 88%
    20:00 +16°C° 1.4 mm 1 mps 598 mmHg 90%
    21:00 +16°C° 0.5 mm 1 mps 598 mmHg 91%
    22:00 +15°C° 0.5 mm 1 mps 598 mmHg 91%
    23:00 +15°C° 0.5 mm 1 mps 598 mmHg 92%

    20 October, Saturday

    Time Temperature Precipitation Wind Pressure Humidity
    00:00 +14°C° 0 mm 1 mps 597 mmHg 92%
    01:00 +14°C° 0 mm 2 mps 597 mmHg 92%
    02:00 +13°C° 0 mm 2 mps 596 mmHg 92%
    03:00 +13°C° 0 mm 2 mps 596 mmHg 92%
    04:00 +13°C° 0 mm 2 mps 596 mmHg 91%
    05:00 +12°C° 0 mm 2 mps 596 mmHg 90%
    06:00 +15°C° 0 mm 2 mps 598 mmHg 80%
    07:00 +17°C° 0 mm 2 mps 599 mmHg 69%
    08:00 +19°C° 0 mm 2 mps 600 mmHg 59%
    09:00 +21°C° 0 mm 2 mps 601 mmHg 49%
    10:00 +25°C° 0 mm 2 mps 601 mmHg 40%
    11:00 +27°C° 0 mm 2 mps 602 mmHg 31%
    12:00 +27°C° 0 mm 2 mps 601 mmHg 30%
    13:00 +27°C° 0 mm 2 mps 600 mmHg 30%
    14:00 +27°C° 0 mm 3 mps 600 mmHg 30%
    15:00 +25°C° 0 mm 2 mps 599 mmHg 39%
    16:00 +23°C° 0 mm 2 mps 598 mmHg 49%
    17:00 +21°C° 0 mm 1 mps 597 mmHg 58%
    18:00 +20°C° 0 mm 1 mps 597 mmHg 62%
    19:00 +18°C° 0 mm 1 mps 598 mmHg 67%
    20:00 +16°C° 0 mm 1 mps 598 mmHg 71%
    21:00 +15°C° 0 mm 1 mps 598 mmHg 72%
    22:00 +15°C° 0 mm 2 mps 598 mmHg 73%
    23:00 +14°C° 0 mm 2 mps 597 mmHg 74%

    21 October, Sunday

    Time Temperature Precipitation Wind Pressure Humidity
    00:00 +14°C° 0 mm 2 mps 597 mmHg 75%
    01:00 +13°C° 0 mm 2 mps 597 mmHg 76%
    02:00 +13°C° 0 mm 2 mps 596 mmHg 77%
    03:00 +13°C° 0 mm 2 mps 596 mmHg 77%
    04:00 +13°C° 0 mm 2 mps 597 mmHg 78%
    05:00 +12°C° 0 mm 2 mps 597 mmHg 78%
    06:00 +15°C° 0 mm 2 mps 598 mmHg 67%
    07:00 +18°C° 0 mm 2 mps 600 mmHg 57%
    08:00 +21°C° 0 mm 2 mps 601 mmHg 46%
    09:00 +24°C° 0 mm 2 mps 601 mmHg 40%
    10:00 +26°C° 0 mm 2 mps 602 mmHg 34%
    11:00 +28°C° 0 mm 2 mps 602 mmHg 29%
    12:00 +27°C° 0 mm 2 mps 601 mmHg 31%
    13:00 +27°C° 0 mm 2 mps 600 mmHg 33%
    14:00 +26°C° 0 mm 2 mps 599 mmHg 35%
    15:00 +24°C° 0 mm 2 mps 598 mmHg 43%
    16:00 +22°C° 0 mm 1 mps 598 mmHg 51%
    17:00 +20°C° 0 mm 1 mps 597 mmHg 59%
    18:00 +19°C° 0 mm 1 mps 598 mmHg 61%
    19:00 +19°C° 0 mm 1 mps 598 mmHg 62%
    20:00 +18°C° 0 mm 1 mps 599 mmHg 64%
    21:00 +16°C° 0 mm 1 mps 598 mmHg 66%
    22:00 +16°C° 0 mm 2 mps 598 mmHg 69%
    23:00 +15°C° 0 mm 2 mps 598 mmHg 72%

    22 October, Monday

    Time Temperature Precipitation Wind Pressure Humidity
    00:00 +15°C° 0 mm 2 mps 597 mmHg 73%
    01:00 +14°C° 0 mm 2 mps 597 mmHg 75%
    02:00 +14°C° 0 mm 2 mps 596 mmHg 77%
    03:00 +14°C° 0 mm 2 mps 597 mmHg 76%
    04:00 +14°C° 0 mm 2 mps 597 mmHg 76%
    05:00 +14°C° 0 mm 2 mps 597 mmHg 75%
    06:00 +16°C° 0 mm 2 mps 598 mmHg 67%
    07:00 +18°C° 0 mm 3 mps 599 mmHg 59%
    08:00 +20°C° 0 mm 3 mps 601 mmHg 51%
    09:00 +22°C° 0 mm 3 mps 601 mmHg 47%
    10:00 +25°C° 0 mm 3 mps 601 mmHg 42%
    11:00 +27°C° 0 mm 3 mps 601 mmHg 38%
    12:00 +26°C° 0.1 mm 2 mps 600 mmHg 43%
    13:00 +24°C° 0.1 mm 2 mps 599 mmHg 48%
    14:00 +23°C° 0.1 mm 2 mps 598 mmHg 53%
    15:00 +21°C° 0.1 mm 2 mps 598 mmHg 57%
    16:00 +20°C° 0.1 mm 2 mps 597 mmHg 62%
    17:00 +20°C° 0.1 mm 1 mps 597 mmHg 66%
    18:00 +18°C° 0 mm 2 mps 598 mmHg 68%
    19:00 +17°C° 0 mm 2 mps 598 mmHg 69%
    20:00 +16°C° 0 mm 2 mps 598 mmHg 71%
    21:00 +16°C° 0 mm 2 mps 598 mmHg 73%
    22:00 +15°C° 0 mm 2 mps 598 mmHg 75%
    23:00 +14°C° 0 mm 3 mps 598 mmHg 77%
    Show more